Regional Weather Roundup
Issued by NWS

Home | Current Version | Previous Version | Graphics & Text | Print | Product List | Glossary On
Versions: 1 2 3 4 5 6 7 8 9 10 11 12 13 14 15 16 17 18 19 20 21 22 23 24 25 26 27 28 29 30 31 32 33 34 35 36 37 38 39 40 41 42 43 44 45 46 47 48 49 50
000
ASUS43 KBIS 020510
RWRND

NORTH DAKOTA REGIONAL WEATHER ROUNDUP
NATIONAL WEATHER SERVICE BISMARCK ND
1200 AM CDT TUE JUN 02 2015

NOTE: "FAIR" INDICATES FEW OR NO CLOUDS BELOW 12,000 FEET WITH NO
SIGNIFICANT WEATHER AND/OR OBSTRUCTIONS TO VISIBILITY.


NDZ001>003-009>011-017-020600-
NORTHWEST NORTH DAKOTA

CITY           SKY/WX    TMP DP  RH WIND       PRES   REMARKS
WILLISTON      MOCLDY    67  56  67 NE13      29.81S
MINOT          CLOUDY    63  58  83 NW6       29.79F
MINOT AFB      CLOUDY    63  63 100 N7        29.79S
$$

NDZ018>021-031>035-040>046-020600-
SOUTHWEST NORTH DAKOTA

CITY           SKY/WX    TMP DP  RH WIND       PRES   REMARKS
BISMARCK       MOCLDY    71  61  70 E7        29.79R
DICKINSON      MOCLDY    67  60  78 SE9       29.74F
GARRISON         N/A     63  58  83 NW7       29.78F
HETTINGER ARPT MOCLDY    67  60  78 SE9       29.76F
$$

NDZ004>008-012>016-024-026-027-054-020600-
NORTHEAST NORTH DAKOTA

CITY           SKY/WX    TMP DP  RH WIND       PRES   REMARKS
GRAND FORKS    CLOUDY    65  47  52 S20G29    29.86F
GRND FRKS AFB  DRIZZLE   64  50  59 S15G28    29.86R
DEVILS LAKE    CLOUDY    63  57  82 E10       29.87R THUNDER
$$

NDZ022-023-025-028>030-036>039-047>053-020600-
SOUTHEAST NORTH DAKOTA

CITY           SKY/WX    TMP DP  RH WIND       PRES   REMARKS
FARGO          MOCLDY    67  45  45 SE18G31   29.90F
JAMESTOWN      CLOUDY    66  58  75 S12       29.84R
$$




USA.gov is the U.S. government's official web portal to all federal, state and local government web resources and services.